Time,TemperatureF,DewpointF,PressureIn,WindDirection,WindDirectionDegrees,WindSpeedMPH,WindSpeedGustMPH,Humidity,HourlyPrecipIn,Conditions,Clouds,dailyrainin,SoftwareType,DateUTC
2013-04-20 00:01:00,34.0,29.0,29.65,SE,141,0.0,2.0,82,0.10,,,0.18,,2013-04-20 06:01:00,
2013-04-20 00:12:00,34.0,29.0,29.65,SE,141,0.0,2.0,82,0.10,,,0.18,,2013-04-20 06:12:00,
2013-04-20 00:21:00,34.0,29.0,29.64,SE,141,0.0,2.0,83,0.08,,,0.20,,2013-04-20 06:21:00,
2013-04-20 00:31:00,34.0,29.0,29.64,SE,141,0.0,0.0,83,0.04,,,0.20,,2013-04-20 06:31:00,
2013-04-20 00:42:00,34.0,29.0,29.64,SE,141,0.0,0.0,83,0.04,,,0.20,,2013-04-20 06:42:00,
2013-04-20 00:52:00,34.0,30.0,29.64,SE,141,0.0,2.0,84,0.04,,,0.22,,2013-04-20 06:52:00,
2013-04-20 01:01:00,34.0,30.0,29.64,SE,141,0.0,0.0,85,0.04,,,0.22,,2013-04-20 07:01:00,
2013-04-20 01:11:00,34.0,30.0,29.64,SE,141,0.0,0.0,85,0.04,,,0.22,,2013-04-20 07:11:00,
2013-04-20 01:21:00,34.0,30.0,29.62,SE,141,0.0,1.0,85,0.02,,,0.22,,2013-04-20 07:21:00,
2013-04-20 01:31:00,34.0,30.0,29.61,SE,141,0.0,1.0,85,0.02,,,0.22,,2013-04-20 07:31:00,
2013-04-20 01:42:00,34.0,30.0,29.61,SE,141,0.0,0.0,86,0.02,,,0.24,,2013-04-20 07:42:00,
2013-04-20 01:52:00,34.0,30.0,29.61,SE,141,0.0,0.0,86,0.02,,,0.24,,2013-04-20 07:52:00,
2013-04-20 02:01:00,34.0,30.0,29.61,SE,141,0.0,0.0,86,0.02,,,0.24,,2013-04-20 08:01:00,
2013-04-20 02:11:00,34.0,30.0,29.61,SE,141,0.0,0.0,86,0.02,,,0.24,,2013-04-20 08:11:00,
2013-04-20 02:21:00,34.0,30.0,29.60,SE,143,0.0,2.0,86,0.02,,,0.24,,2013-04-20 08:21:00,
2013-04-20 02:31:00,33.0,29.0,29.59,SE,143,0.0,0.0,86,0.02,,,0.24,,2013-04-20 08:31:00,
2013-04-20 02:42:00,33.0,29.0,29.59,SE,143,0.0,0.0,86,0.02,,,0.24,,2013-04-20 08:42:00,
2013-04-20 02:52:00,33.0,29.0,29.59,SE,143,0.0,0.0,86,0.00,,,0.24,,2013-04-20 08:52:00,
2013-04-20 03:01:00,33.0,29.0,29.59,SE,143,0.0,0.0,86,0.00,,,0.24,,2013-04-20 09:01:00,
2013-04-20 03:11:00,33.0,29.0,29.59,SE,143,0.0,0.0,86,0.00,,,0.24,,2013-04-20 09:11:00,
2013-04-20 03:21:00,33.0,30.0,29.61,SE,143,0.0,0.0,87,0.02,,,0.26,,2013-04-20 09:21:00,
2013-04-20 03:32:00,33.0,30.0,29.61,SE,143,0.0,0.0,87,0.02,,,0.26,,2013-04-20 09:32:00,
2013-04-20 03:43:00,33.0,30.0,29.61,SE,143,0.0,0.0,87,0.02,,,0.26,,2013-04-20 09:43:00,
2013-04-20 03:53:00,33.0,30.0,29.61,SE,143,0.0,0.0,87,0.02,,,0.26,,2013-04-20 09:53:00,
2013-04-20 04:02:00,34.0,31.0,29.60,West,259,1.0,5.0,88,0.04,,,0.28,,2013-04-20 10:02:00,
2013-04-20 04:12:00,34.0,31.0,29.60,West,259,1.0,5.0,88,0.04,,,0.28,,2013-04-20 10:12:00,
2013-04-20 04:22:00,35.0,32.0,29.58,WSW,244,4.0,12.0,88,0.04,,,0.30,,2013-04-20 10:22:00,
2013-04-20 04:32:00,36.0,32.0,29.58,West,274,5.0,12.0,86,0.08,,,0.34,,2013-04-20 10:32:00,
2013-04-20 04:42:00,36.0,32.0,29.58,WNW,289,3.0,6.0,85,0.10,,,0.36,,2013-04-20 10:42:00,
2013-04-20 04:52:00,36.0,32.0,29.58,WNW,289,3.0,6.0,85,0.10,,,0.36,,2013-04-20 10:52:00,
2013-04-20 05:02:00,36.0,32.0,29.59,WNW,293,3.0,12.0,85,0.12,,,0.40,,2013-04-20 11:02:00,
2013-04-20 05:12:00,36.0,32.0,29.59,West,277,5.0,12.0,85,0.12,,,0.42,,2013-04-20 11:12:00,
2013-04-20 05:22:00,36.0,32.0,29.59,West,277,5.0,12.0,85,0.12,,,0.42,,2013-04-20 11:22:00,
2013-04-20 05:31:00,36.0,32.0,29.59,WSW,241,4.0,12.0,85,0.12,,,0.46,,2013-04-20 11:31:00,
2013-04-20 05:42:00,36.0,32.0,29.59,WSW,241,4.0,12.0,85,0.12,,,0.46,,2013-04-20 11:42:00,
2013-04-20 05:52:00,36.0,32.0,29.60,WSW,251,5.0,14.0,84,0.12,,,0.48,,2013-04-20 11:52:00,
2013-04-20 06:01:00,36.0,32.0,29.61,West,261,4.0,12.0,84,0.10,,,0.50,,2013-04-20 12:01:00,
2013-04-20 06:11:00,36.0,32.0,29.61,West,261,4.0,12.0,84,0.10,,,0.50,,2013-04-20 12:11:00,
2013-04-20 06:22:00,36.0,32.0,29.59,WSW,244,6.0,12.0,84,0.08,,,0.50,,2013-04-20 12:22:00,
2013-04-20 06:32:00,35.0,31.0,29.60,WSW,253,7.0,13.0,84,0.06,,,0.52,,2013-04-20 12:32:00,
2013-04-20 06:41:00,35.0,31.0,29.60,WSW,253,7.0,13.0,84,0.06,,,0.52,,2013-04-20 12:41:00,
2013-04-20 06:52:00,36.0,31.0,29.60,WSW,253,7.0,17.0,83,0.04,,,0.52,,2013-04-20 12:52:00,
2013-04-20 07:02:00,36.0,31.0,29.60,West,261,9.0,18.0,83,0.02,,,0.52,,2013-04-20 13:02:00,
2013-04-20 07:11:00,35.0,30.0,29.62,West,278,3.0,12.0,83,0.04,,,0.54,,2013-04-20 13:11:00,
2013-04-20 07:21:00,35.0,30.0,29.62,West,278,3.0,12.0,83,0.04,,,0.54,,2013-04-20 13:21:00,
2013-04-20 07:31:00,35.0,30.0,29.63,WSW,247,9.0,16.0,83,0.02,,,0.54,,2013-04-20 13:31:00,
2013-04-20 07:41:00,35.0,30.0,29.64,WSW,257,4.0,12.0,83,0.04,,,0.56,,2013-04-20 13:41:00,
2013-04-20 07:52:00,35.0,30.0,29.64,WSW,257,4.0,12.0,83,0.04,,,0.56,,2013-04-20 13:52:00,
2013-04-20 08:01:00,35.0,31.0,29.64,WSW,256,1.0,7.0,84,0.06,,,0.58,,2013-04-20 14:01:00,
2013-04-20 08:11:00,34.0,30.0,29.67,West,269,2.0,6.0,84,0.06,,,0.60,,2013-04-20 14:11:00,
2013-04-20 08:21:00,34.0,30.0,29.67,West,269,2.0,6.0,84,0.06,,,0.60,,2013-04-20 14:21:00,
2013-04-20 08:31:00,34.0,30.0,29.68,NW,308,2.0,6.0,84,0.08,,,0.62,,2013-04-20 14:31:00,
2013-04-20 08:41:00,34.0,30.0,29.68,NW,308,2.0,6.0,84,0.08,,,0.62,,2013-04-20 14:41:00,
2013-04-20 08:52:00,35.0,31.0,29.68,West,281,5.0,12.0,85,0.08,,,0.64,,2013-04-20 14:52:00,
2013-04-20 09:01:00,35.0,31.0,29.67,West,262,7.0,12.0,85,0.07,,,0.65,,2013-04-20 15:01:00,
2013-04-20 09:11:00,35.0,31.0,29.67,West,262,7.0,12.0,85,0.07,,,0.65,,2013-04-20 15:11:00,
2013-04-20 09:21:00,35.0,31.0,29.70,West,271,5.0,13.0,85,0.05,,,0.65,,2013-04-20 15:21:00,
2013-04-20 09:33:00,36.0,32.0,29.69,West,261,2.0,6.0,84,0.03,,,0.65,,2013-04-20 15:33:00,
2013-04-20 09:43:00,36.0,32.0,29.70,WSW,251,5.0,12.0,84,0.01,,,0.65,,2013-04-20 15:43:00,
2013-04-20 09:53:00,36.0,32.0,29.70,WSW,251,5.0,12.0,84,0.01,,,0.65,,2013-04-20 15:53:00,
2013-04-20 10:03:00,36.0,31.0,29.70,WSW,253,8.0,17.0,83,0.00,,,0.65,,2013-04-20 16:03:00,
2013-04-20 10:12:00,36.0,31.0,29.72,WSW,255,10.0,16.0,82,0.00,,,0.65,,2013-04-20 16:12:00,
2013-04-20 10:23:00,36.0,31.0,29.72,WSW,255,10.0,16.0,82,0.00,,,0.65,,2013-04-20 16:23:00,
2013-04-20 10:32:00,36.0,31.0,29.72,WSW,256,5.0,14.0,82,0.00,,,0.65,,2013-04-20 16:32:00,
2013-04-20 10:41:00,36.0,31.0,29.73,WSW,255,10.0,20.0,81,0.02,,,0.67,,2013-04-20 16:41:00,
2013-04-20 10:52:00,36.0,31.0,29.73,WSW,255,10.0,20.0,81,0.02,,,0.67,,2013-04-20 16:52:00,
2013-04-20 11:02:00,36.0,31.0,29.73,WSW,257,10.0,18.0,81,0.02,,,0.67,,2013-04-20 17:02:00,
2013-04-20 11:11:00,36.0,31.0,29.75,West,262,8.0,17.0,81,0.02,,,0.67,,2013-04-20 17:11:00,
2013-04-20 11:22:00,36.0,31.0,29.75,West,262,8.0,17.0,81,0.02,,,0.67,,2013-04-20 17:22:00,
2013-04-20 11:32:00,37.0,32.0,29.75,West,273,2.0,12.0,81,0.02,,,0.67,,2013-04-20 17:32:00,
2013-04-20 11:41:00,37.0,32.0,29.75,West,273,2.0,12.0,81,0.02,,,0.67,,2013-04-20 17:41:00,
2013-04-20 11:52:00,37.0,32.0,29.75,NW,316,1.0,5.0,81,0.00,,,0.67,,2013-04-20 17:52:00,
2013-04-20 12:01:00,37.0,32.0,29.75,WNW,302,2.0,7.0,81,0.02,,,0.69,,2013-04-20 18:01:00,
2013-04-20 12:12:00,37.0,32.0,29.75,West,269,5.0,12.0,82,0.02,,,0.69,,2013-04-20 18:12:00,
2013-04-20 12:22:00,37.0,32.0,29.75,West,269,5.0,12.0,82,0.02,,,0.69,,2013-04-20 18:22:00,
2013-04-20 12:32:00,38.0,32.0,29.73,WSW,243,6.0,12.0,80,0.02,,,0.69,,2013-04-20 18:32:00,
2013-04-20 12:41:00,38.0,32.0,29.73,WSW,243,6.0,12.0,80,0.02,,,0.69,,2013-04-20 18:41:00,
2013-04-20 12:52:00,40.0,33.0,29.72,WSW,245,10.0,20.0,77,0.02,,,0.69,,2013-04-20 18:52:00,
2013-04-20 13:01:00,39.0,32.0,29.74,WSW,256,6.0,13.0,77,0.00,,,0.69,,2013-04-20 19:01:00,
2013-04-20 13:11:00,40.0,33.0,29.72,WSW,252,8.0,14.0,77,0.00,,,0.69,,2013-04-20 19:11:00,
2013-04-20 13:21:00,40.0,33.0,29.72,WSW,252,8.0,14.0,77,0.00,,,0.69,,2013-04-20 19:21:00,
2013-04-20 13:31:00,40.0,33.0,29.72,WSW,244,9.0,16.0,75,0.00,,,0.69,,2013-04-20 19:31:00,
2013-04-20 13:41:00,41.0,34.0,29.72,WSW,258,4.0,12.0,75,0.00,,,0.69,,2013-04-20 19:41:00,
2013-04-20 13:52:00,41.0,34.0,29.72,WSW,258,4.0,12.0,75,0.00,,,0.69,,2013-04-20 19:52:00,
2013-04-20 14:01:00,39.0,31.0,29.74,WSW,255,9.0,16.0,74,0.02,,,0.71,,2013-04-20 20:01:00,
2013-04-20 14:11:00,40.0,34.0,29.74,WSW,250,10.0,14.0,78,0.02,,,0.71,,2013-04-20 20:11:00,
2013-04-20 14:21:00,40.0,34.0,29.74,WSW,250,10.0,14.0,78,0.02,,,0.71,,2013-04-20 20:21:00,
2013-04-20 14:32:00,40.0,32.0,29.73,WSW,242,8.0,17.0,73,0.02,,,0.71,,2013-04-20 20:32:00,
2013-04-20 14:42:00,40.0,32.0,29.73,WSW,242,8.0,17.0,73,0.02,,,0.71,,2013-04-20 20:42:00,
2013-04-20 14:52:00,38.0,31.0,29.77,WSW,243,9.0,16.0,75,0.02,,,0.71,,2013-04-20 20:52:00,
2013-04-20 15:01:00,40.0,32.0,29.75,West,263,6.0,16.0,74,0.00,,,0.71,,2013-04-20 21:01:00,
2013-04-20 15:12:00,41.0,32.0,29.72,WSW,243,10.0,17.0,71,0.00,,,0.71,,2013-04-20 21:12:00,
2013-04-20 15:21:00,41.0,32.0,29.72,WSW,243,10.0,17.0,71,0.00,,,0.71,,2013-04-20 21:21:00,
2013-04-20 15:32:00,42.0,32.0,29.72,WSW,257,6.0,12.0,68,0.00,,,0.71,,2013-04-20 21:32:00,
2013-04-20 15:42:00,42.0,32.0,29.72,WSW,257,6.0,12.0,68,0.00,,,0.71,,2013-04-20 21:42:00,
2013-04-20 15:52:00,42.0,31.0,29.71,WSW,249,9.0,13.0,64,0.00,,,0.71,,2013-04-20 21:52:00,
2013-04-20 16:02:00,42.0,31.0,29.72,SW,228,5.0,12.0,65,0.00,,,0.71,,2013-04-20 22:02:00,
2013-04-20 16:12:00,41.0,31.0,29.72,West,274,5.0,13.0,66,0.00,,,0.71,,2013-04-20 22:12:00,
2013-04-20 16:22:00,41.0,31.0,29.72,West,274,5.0,13.0,66,0.00,,,0.71,,2013-04-20 22:22:00,
2013-04-20 16:32:00,41.0,32.0,29.71,West,260,6.0,13.0,69,0.00,,,0.71,,2013-04-20 22:32:00,
2013-04-20 16:41:00,41.0,32.0,29.71,West,260,6.0,13.0,69,0.00,,,0.71,,2013-04-20 22:41:00,
2013-04-20 16:52:00,40.0,32.0,29.71,West,267,4.0,8.0,73,0.02,,,0.73,,2013-04-20 22:52:00,
2013-04-20 17:02:00,42.0,33.0,29.69,NW,312,2.0,13.0,71,0.02,,,0.73,,2013-04-20 23:02:00,
2013-04-20 17:11:00,44.0,33.0,29.67,WSW,247,5.0,13.0,64,0.02,,,0.73,,2013-04-20 23:11:00,
2013-04-20 17:22:00,44.0,33.0,29.67,WSW,247,5.0,13.0,64,0.02,,,0.73,,2013-04-20 23:22:00,
2013-04-20 17:31:00,44.0,31.0,29.68,WNW,287,5.0,10.0,60,0.02,,,0.73,,2013-04-20 23:31:00,
2013-04-20 17:41:00,44.0,31.0,29.68,WNW,287,5.0,10.0,60,0.02,,,0.73,,2013-04-20 23:41:00,
2013-04-20 17:52:00,44.0,29.0,29.68,NNW,328,7.0,14.0,56,0.00,,,0.73,,2013-04-20 23:52:00,
2013-04-20 18:01:00,45.0,30.0,29.68,West,273,3.0,14.0,55,0.00,,,0.73,,2013-04-21 00:01:00,
2013-04-20 18:11:00,45.0,30.0,29.68,West,273,3.0,14.0,55,0.00,,,0.73,,2013-04-21 00:11:00,
2013-04-20 18:21:00,45.0,28.0,29.68,West,261,6.0,12.0,51,0.00,,,0.73,,2013-04-21 00:21:00,
2013-04-20 18:31:00,45.0,28.0,29.68,WSW,253,3.0,13.0,51,0.00,,,0.73,,2013-04-21 00:31:00,
2013-04-20 18:41:00,45.0,28.0,29.68,WSW,253,3.0,13.0,51,0.00,,,0.73,,2013-04-21 00:41:00,
2013-04-20 18:52:00,45.0,27.0,29.69,WNW,287,6.0,12.0,50,0.00,,,0.73,,2013-04-21 00:52:00,
2013-04-20 19:01:00,44.0,28.0,29.69,WNW,285,2.0,6.0,52,0.00,,,0.73,,2013-04-21 01:01:00,
2013-04-20 19:11:00,44.0,28.0,29.69,WNW,285,2.0,6.0,52,0.00,,,0.73,,2013-04-21 01:11:00,
2013-04-20 19:21:00,43.0,28.0,29.72,West,269,1.0,5.0,54,0.00,,,0.73,,2013-04-21 01:21:00,
2013-04-20 19:31:00,43.0,28.0,29.72,WNW,292,2.0,5.0,54,0.00,,,0.73,,2013-04-21 01:31:00,
2013-04-20 19:41:00,43.0,28.0,29.72,WNW,292,2.0,5.0,54,0.00,,,0.73,,2013-04-21 01:41:00,
2013-04-20 19:52:00,43.0,28.0,29.72,NW,305,1.0,3.0,54,0.00,,,0.73,,2013-04-21 01:52:00,
2013-04-20 20:01:00,42.0,27.0,29.72,NW,305,1.0,3.0,56,0.00,,,0.73,,2013-04-21 02:01:00,
2013-04-20 20:11:00,42.0,27.0,29.72,NW,305,1.0,3.0,56,0.00,,,0.73,,2013-04-21 02:11:00,
2013-04-20 20:21:00,42.0,27.0,29.72,WNW,291,0.0,0.0,56,0.00,,,0.73,,2013-04-21 02:21:00,
2013-04-20 20:31:00,41.0,28.0,29.73,WNW,291,0.0,0.0,59,0.00,,,0.73,,2013-04-21 02:31:00,
2013-04-20 20:41:00,41.0,28.0,29.73,WNW,291,0.0,0.0,59,0.00,,,0.73,,2013-04-21 02:41:00,
2013-04-20 20:52:00,39.0,27.0,29.75,WNW,291,0.0,2.0,62,0.00,,,0.73,,2013-04-21 02:52:00,
2013-04-20 21:01:00,39.0,28.0,29.75,WNW,295,2.0,3.0,64,0.00,,,0.73,,2013-04-21 03:01:00,
2013-04-20 21:11:00,39.0,28.0,29.75,WNW,295,2.0,3.0,64,0.00,,,0.73,,2013-04-21 03:11:00,
2013-04-20 21:21:00,37.0,27.0,29.77,WNW,297,1.0,6.0,67,0.00,,,0.73,,2013-04-21 03:21:00,
2013-04-20 21:32:00,36.0,27.0,29.78,WNW,296,0.0,2.0,70,0.00,,,0.73,,2013-04-21 03:32:00,
2013-04-20 21:42:00,36.0,27.0,29.78,WNW,296,0.0,2.0,70,0.00,,,0.73,,2013-04-21 03:42:00,
2013-04-20 21:52:00,35.0,27.0,29.79,WNW,296,1.0,3.0,72,0.00,,,0.73,,2013-04-21 03:52:00,
2013-04-20 22:02:00,35.0,27.0,29.80,WNW,296,0.0,1.0,73,0.00,,,0.73,,2013-04-21 04:02:00,
2013-04-20 22:12:00,34.0,27.0,29.80,WNW,296,2.0,3.0,76,0.00,,,0.71,,2013-04-21 04:12:00,
2013-04-20 22:22:00,34.0,27.0,29.80,WNW,296,2.0,3.0,76,0.00,,,0.71,,2013-04-21 04:22:00,
2013-04-20 22:32:00,34.0,27.0,29.80,WNW,296,1.0,2.0,76,0.00,,,0.71,,2013-04-21 04:32:00,
2013-04-20 22:42:00,34.0,27.0,29.80,WNW,296,1.0,2.0,76,0.00,,,0.71,,2013-04-21 04:42:00,
2013-04-20 22:53:00,34.0,27.0,29.81,WNW,296,1.0,3.0,76,0.00,,,0.69,,2013-04-21 04:53:00,
2013-04-20 23:02:00,33.0,27.0,29.81,WNW,296,0.0,0.0,78,0.00,,,0.65,,2013-04-21 05:02:00,
2013-04-20 23:12:00,33.0,27.0,29.81,WNW,296,0.0,0.0,78,0.00,,,0.65,,2013-04-21 05:12:00,
2013-04-20 23:21:00,33.0,27.0,29.81,WNW,296,0.0,0.0,78,0.00,,,0.61,,2013-04-21 05:21:00,
2013-04-20 23:32:00,32.0,26.0,29.82,WNW,296,0.0,0.0,79,0.00,,,0.57,,2013-04-21 05:32:00,
2013-04-20 23:42:00,32.0,26.0,29.82,WNW,296,0.0,0.0,79,0.00,,,0.57,,2013-04-21 05:42:00,
2013-04-20 23:52:00,31.0,26.0,29.82,WNW,296,0.0,2.0,80,0.00,,,0.55,,2013-04-21 05:52:00,